Location: Barrio Las Umbrías
(40.4173°N, 4.8685°W)
Time: 13:39:55
(UTC+00:00)

Cosmos 1340 - Pass Details

Date: 17 August 2022
Orbit: 490 x 495 km, 81.2° (Epoch: 27 September)

Event Time Altitude Azimuth Distance (km) Brightness Sun altitude
Rises 20:21:17 0° 342° (NNW) 2,597 7.1 -12.5°
Reaches altitude 10° 20:23:31 10° 333° (NNW) 1,708 6.2 -12.8°
Maximum altitude 20:26:58 36° 266° (W) 797 4.2 -13.4°
Drops below altitude 10° 20:30:24 10° 198° (SSW) 1,691 5.2 -14.0°
Sets 20:32:36 0° 190° (S) 2,567 6.0 -14.3°
